Location: Buchdorf
(48.7842°N, 10.8275°E)
Time: 18:32:34
(UTC+00:00)

Cosmos 2151 - Pass Details

Date: 09 April 2020
Orbit: 582 x 600 km, 82.5° (Epoch: 02 June)

Event Time Altitude Azimuth Distance (km) Brightness Sun altitude
Rises 21:01:24 0° 345° (NNW) 2,819 7.5 -25.8°
Reaches altitude 10° 21:03:40 10° 340° (NNW) 1,914 6.5 -26.0°
Enters shadow 21:07:31 47° 275° (W) 784 3.7 -26.4°
